Kailua Kona, HI

5:37 PM HST on July 23, 2016 (GMT -1000)
Kona International At Keahole

Weather History for PHKO - August, 2013

Change the Weather History Date:

Monday, August 26, 2013

  Actual Average Record
Temperature  
Mean Temperature 80 °F -  
Max Temperature 86 °F 84 °F 92 °F (1982)
Min Temperature 75 °F 73 °F 69 °F (2010)
Cooling Degree Days 16    
Growing Degree Days 30 (Base 50)    
Moisture  
Dew Point 68 °F    
Average Humidity 65    
Maximum Humidity 76    
Minimum Humidity 53    
Precipitation  
Precipitation 0.00 in - - ()
Sea Level Pressure  
Sea Level Pressure 30.03 in    
Wind  
Wind Speed 6 mph (SSE)    
Max Wind Speed 15 mph    
Max Gust Speed -    
Visibility 10 miles    
Events      
Averages and records for this station are not official NWS values.
T = Trace of Precipitation, MM = Missing Value Source: NWS Daily Summary

Daily Weather History Graph

Daily Weather History Graph

Search for Another Location

Airport or City:

Trip Planner

Search our weather history database for the weather conditions in past years. The results will help you decide how hot, cold, wet, or windy it might be!

Date:

Astronomy

Aug. 26, 2013 Rise Set
Actual Time 6:07 AM HST 6:43 PM HST
Civil Twilight 5:45 AM HST 7:06 PM HST
Nautical Twilight 5:18 AM HST 7:32 PM HST
Astronomical Twilight 4:52 AM HST 7:59 PM HST
Moon 10:58 PM HST (8/26) 11:24 AM HST (8/26)
Length of Visible Light 13h 21m
Length of Day
12h 36m
Waning Gibbous, 64% of the Moon is Illuminated
Aug 26
Waning Gibbous
Aug 27
Last Quarter
Sep 5
New
Sep 12
First Quarter
Sep 19
Full

Hourly Weather History & Observations

Time (HST) Temp. Heat Index Dew Point Humidity Pressure Visibility Wind Dir Wind Speed Gust Speed Precip Events Conditions
12:53 AM 78.1 °F - 66.9 °F 68% 30.03 in 10.0 mi East 3.5 mph - N/A   Clear
1:53 AM 78.1 °F - 68.0 °F 71% 30.02 in 10.0 mi ESE 4.6 mph - N/A   Clear
2:53 AM 77.0 °F - 66.0 °F 69% 30.01 in 10.0 mi East 4.6 mph - N/A   Clear
3:53 AM 75.9 °F - 66.0 °F 71% 30.01 in 10.0 mi East 5.8 mph - N/A   Scattered Clouds
4:53 AM 75.9 °F - 68.0 °F 76% 30.01 in 10.0 mi ESE 5.8 mph - N/A   Partly Cloudy
5:53 AM 75.9 °F - 66.9 °F 74% 30.03 in 10.0 mi East 3.5 mph - N/A   Mostly Cloudy
6:53 AM 78.1 °F - 66.9 °F 68% 30.04 in 10.0 mi ESE 4.6 mph - N/A   Partly Cloudy
7:53 AM 81.0 °F 84.4 °F 70.0 °F 69% 30.04 in 10.0 mi South 3.5 mph - N/A   Scattered Clouds
8:03 AM 80.6 °F 84.6 °F 71.6 °F 74% 30.04 in 10.0 mi South 4.6 mph - N/A   Mostly Cloudy
8:18 AM 80.6 °F 83.9 °F 69.8 °F 70% 30.04 in 10.0 mi South 4.6 mph - N/A   Partly Cloudy
8:53 AM 81.0 °F 84.1 °F 69.1 °F 67% 30.05 in 10.0 mi SSW 5.8 mph - N/A   Partly Cloudy
9:53 AM 82.9 °F 86.5 °F 69.1 °F 63% 30.05 in 10.0 mi SSW 8.1 mph - N/A   Clear
10:53 AM 84.0 °F 88.4 °F 70.0 °F 63% 30.05 in 10.0 mi SSW 11.5 mph - N/A   Clear
11:53 AM 86.0 °F 90.7 °F 70.0 °F 59% 30.03 in 10.0 mi South 15.0 mph - N/A   Clear
12:53 PM 84.9 °F 89.4 °F 70.0 °F 61% 30.01 in 10.0 mi South 10.4 mph - N/A   Scattered Clouds
1:53 PM 86.0 °F 88.8 °F 66.9 °F 53% 30.01 in 10.0 mi WSW 11.5 mph - N/A   Mostly Cloudy
2:53 PM 86.0 °F 90.7 °F 70.0 °F 59% 30.00 in 10.0 mi SW 11.5 mph - N/A   Mostly Cloudy
3:53 PM 86.0 °F 90.7 °F 70.0 °F 59% 29.99 in 10.0 mi WSW 13.8 mph - N/A   Mostly Cloudy
4:53 PM 84.0 °F 87.0 °F 68.0 °F 58% 29.99 in 10.0 mi SW 13.8 mph - N/A   Overcast
5:53 PM 82.9 °F 86.5 °F 69.1 °F 63% 30.00 in 10.0 mi WSW 10.4 mph - N/A   Mostly Cloudy
6:53 PM 82.0 °F 85.5 °F 69.1 °F 65% 30.01 in 10.0 mi WSW 10.4 mph - N/A   Overcast
7:53 PM 81.0 °F 83.8 °F 68.0 °F 65% 30.03 in 10.0 mi Calm Calm - N/A   Mostly Cloudy
8:53 PM 80.1 °F 81.2 °F 62.1 °F 54% 30.04 in 10.0 mi NNE 11.5 mph - N/A   Clear
9:53 PM 80.1 °F 82.3 °F 66.9 °F 64% 30.05 in 10.0 mi Calm Calm - N/A   Clear
10:53 PM 79.0 °F - 68.0 °F 69% 30.05 in 10.0 mi ESE 8.1 mph - N/A   Clear
11:53 PM 78.1 °F - 66.9 °F 68% 30.04 in 10.0 mi East 6.9 mph - N/A   Clear